NORTHEAST SUFFOLK  -  Winter Storm Watch Winter Storm Watch        NORTHERN NASSAU  -  Winter Storm Watch Winter Storm Watch        NORTHERN QUEENS  -  Winter Storm Watch Winter Storm Watch        NORTHWEST SUFFOLK  -  Winter Storm Watch Winter Storm Watch        SOUTHEAST SUFFOLK  -  Winter Storm Watch Winter Storm Watch        SOUTHERN NASSAU  -  Winter Storm Watch Winter Storm Watch        SOUTHERN QUEENS  -  Winter Storm Watch Winter Storm Watch        SOUTHWEST SUFFOLK  -  Winter Storm Watch Winter Storm Watch      

Active alerts

Northern Queens
  Details for Northern Queens Winter Storm Watch
Southern Queens
  Details for Southern Queens Winter Storm Watch
Northern Nassau
  Details for Northern Nassau Winter Storm Watch
Southern Nassau
  Details for Southern Nassau Winter Storm Watch
Northwest Suffolk
  Details for Northwest Suffolk Winter Storm Watch
Southwest Suffolk
  Details for Southwest Suffolk Winter Storm Watch
Northeast Suffolk
  Details for Northeast Suffolk Winter Storm Watch
Southeast Suffolk
  Details for Southeast Suffolk Winter Storm Watch


WXM80 ListenWXM80 Stop

You find our weather info also at:

UK Metoffice

WeatherCloud

Weather Underground

Northeastern Weather Network

AWEKAS

Citizen Weather Observer Program (CWOP)

HAMweather, WeatherForYou, PWS Weather


Weather Underground History page Text

Daily Summary for November 25, 2017 Units:  English    Metric   Both
« Previous Day
Next Day »
Daily Weekly Monthly Yearly Custom
  High: Low: Average:
Temperature: 57.7 °F 37.1 °F 47.5 °F
Dew Point: 44.4 °F 33.2 °F 38.5 °F
Humidity: 90 % 49 % 72 %
Wind Speed: 8.4 mph 0.0 mph 1.9 mph
Wind Gust: 17.3 mph - -
Wind:- - SW
Pressure: 29.95 in 29.68 in -
Precipitation: 0.00 in    
Historical Graphs
 
 
Tabular Data for November 25, 2017
Time Temperature Dew Point Pressure Wind Wind Speed Wind Gust Humidity Rainfall Rate (Hourly)
00:03 41.3 °F 35.0 °F 29.95 in SW 0.9 mph 3.5 mph 78 % 0.00 in
00:08 41.3 °F 34.6 °F 29.94 in WSW 1.8 mph 3.5 mph 77 % 0.00 in
00:13 41.3 °F 34.3 °F 29.94 in SW 1.0 mph 3.5 mph 76 % 0.00 in
00:19 41.3 °F 34.3 °F 29.94 in WSW 0.9 mph 2.0 mph 76 % 0.00 in
00:24 41.3 °F 34.3 °F 29.94 in WSW 2.2 mph 6.9 mph 76 % 0.00 in
00:29 41.3 °F 34.3 °F 29.94 in WSW 0.9 mph 3.5 mph 76 % 0.00 in
00:34 41.3 °F 34.3 °F 29.94 in WSW 0.2 mph 3.5 mph 76 % 0.00 in
00:39 41.3 °F 34.3 °F 29.94 in WSW 1.2 mph 3.5 mph 76 % 0.00 in
00:44 41.3 °F 34.0 °F 29.95 in SW 1.5 mph 2.3 mph 75 % 0.00 in
00:49 41.3 °F 34.3 °F 29.94 in Calm   1.2 mph 76 % 0.00 in
00:54 41.3 °F 34.0 °F 29.94 in SW 2.2 mph 4.6 mph 75 % 0.00 in
00:59 41.2 °F 34.2 °F 29.94 in WSW 2.6 mph 5.8 mph 76 % 0.00 in
01:04 41.1 °F 34.1 °F 29.94 in WSW 1.2 mph 3.0 mph 76 % 0.00 in
01:09 41.1 °F 34.1 °F 29.94 in SW 1.1 mph 2.3 mph 76 % 0.00 in
01:14 41.1 °F 34.1 °F 29.94 in SW 1.8 mph 4.6 mph 76 % 0.00 in
01:19 41.0 °F 34.3 °F 29.94 in SW 1.6 mph 3.5 mph 77 % 0.00 in
01:24 40.9 °F 34.2 °F 29.93 in SW 1.0 mph 3.5 mph 77 % 0.00 in
01:28 40.9 °F 34.2 °F 29.93 in SSW 1.5 mph 6.9 mph 77 % 0.00 in
01:33 40.8 °F 34.1 °F 29.93 in SW 2.5 mph 3.5 mph 77 % 0.00 in
01:38 40.8 °F 34.1 °F 29.93 in West 2.0 mph 4.6 mph 77 % 0.00 in
01:43 40.7 °F 34.4 °F 29.93 in WSW 2.2 mph 3.5 mph 78 % 0.00 in
01:48 40.7 °F 34.4 °F 29.93 in SW 1.8 mph 3.5 mph 78 % 0.00 in
01:53 40.7 °F 34.4 °F 29.93 in SW 1.0 mph 3.5 mph 78 % 0.00 in
01:58 40.7 °F 34.4 °F 29.93 in SW 0.4 mph 2.3 mph 78 % 0.00 in
02:03 40.7 °F 34.4 °F 29.93 in SW 1.8 mph 3.5 mph 78 % 0.00 in
02:08 40.7 °F 34.4 °F 29.93 in SW 1.6 mph 3.5 mph 78 % 0.00 in
02:13 40.7 °F 34.4 °F 29.93 in Calm     78 % 0.00 in
02:18 40.6 °F 34.3 °F 29.93 in Calm   1.2 mph 78 % 0.00 in
02:23 40.6 °F 34.3 °F 29.93 in WSW 0.1 mph 1.2 mph 78 % 0.00 in
02:28 40.5 °F 34.5 °F 29.93 in SW 2.0 mph 3.5 mph 79 % 0.00 in
02:34 40.4 °F 34.4 °F 29.92 in WSW 1.2 mph 2.3 mph 79 % 0.00 in
02:39 40.3 °F 34.3 °F 29.92 in SW 0.5 mph 1.2 mph 79 % 0.00 in
02:44 40.2 °F 34.2 °F 29.92 in Calm   1.0 mph 79 % 0.00 in
02:49 40.2 °F 34.5 °F 29.92 in WSW 0.2 mph 2.3 mph 80 % 0.00 in
02:54 40.1 °F 34.4 °F 29.92 in WSW 0.7 mph 3.5 mph 80 % 0.00 in
02:59 40.0 °F 34.3 °F 29.92 in Calm     80 % 0.00 in
03:04 40.0 °F 34.3 °F 29.91 in Calm     80 % 0.00 in
03:09 39.9 °F 34.2 °F 29.91 in Calm   2.3 mph 80 % 0.00 in
03:14 39.8 °F 34.1 °F 29.91 in Calm     80 % 0.00 in
03:19 39.6 °F 33.9 °F 29.91 in Calm     80 % 0.00 in
03:24 39.5 °F 33.8 °F 29.90 in Calm   1.0 mph 80 % 0.00 in
03:29 39.4 °F 34.1 °F 29.90 in SW 0.3 mph 2.3 mph 81 % 0.00 in
03:34 39.3 °F 34.0 °F 29.90 in Calm   2.3 mph 81 % 0.00 in
03:39 39.1 °F 34.1 °F 29.90 in Calm   1.2 mph 82 % 0.00 in
03:44 39.0 °F 34.0 °F 29.90 in Calm     82 % 0.00 in
03:49 38.8 °F 33.8 °F 29.90 in Calm     82 % 0.00 in
03:54 38.7 °F 33.7 °F 29.90 in WSW 0.2 mph 1.2 mph 82 % 0.00 in
03:59 38.6 °F 33.9 °F 29.89 in WSW 0.6 mph 1.2 mph 83 % 0.00 in
04:04 38.5 °F 33.8 °F 29.89 in Calm     83 % 0.00 in
04:09 38.4 °F 33.7 °F 29.89 in Calm     83 % 0.00 in
04:14 38.2 °F 33.5 °F 29.89 in WSW 0.3 mph 1.2 mph 83 % 0.00 in
04:19 38.1 °F 33.7 °F 29.89 in Calm     84 % 0.00 in
04:24 38.0 °F 33.6 °F 29.89 in Calm     84 % 0.00 in
04:29 37.9 °F 33.5 °F 29.89 in WSW 0.9 mph 2.3 mph 84 % 0.00 in
04:34 37.8 °F 33.4 °F 29.89 in Calm   1.2 mph 84 % 0.00 in
04:39 37.7 °F 33.3 °F 29.89 in Calm     84 % 0.00 in
04:44 37.6 °F 33.2 °F 29.88 in Calm     84 % 0.00 in
04:49 37.5 °F 33.4 °F 29.88 in Calm     85 % 0.00 in
04:54 37.4 °F 33.3 °F 29.88 in SW 1.1 mph 3.5 mph 85 % 0.00 in
04:59 37.3 °F 33.5 °F 29.88 in SSW 0.1 mph 1.0 mph 86 % 0.00 in
05:04 37.3 °F 33.5 °F 29.88 in WSW 1.4 mph 3.0 mph 86 % 0.00 in
05:09 37.2 °F 33.7 °F 29.88 in WSW 0.9 mph 2.3 mph 87 % 0.00 in
05:14 37.2 °F 34.0 °F 29.88 in SW 1.2 mph 3.5 mph 88 % 0.00 in
05:19 37.3 °F 34.4 °F 29.87 in SW 1.7 mph 3.5 mph 89 % 0.00 in
05:24 37.3 °F 34.4 °F 29.87 in WSW 1.2 mph 3.5 mph 89 % 0.00 in
05:29 37.4 °F 34.5 °F 29.87 in SW 1.1 mph 3.5 mph 89 % 0.00 in
05:34 37.5 °F 34.8 °F 29.87 in SW 1.9 mph 3.0 mph 90 % 0.00 in
05:39 37.5 °F 34.8 °F 29.87 in SW 0.6 mph 1.2 mph 90 % 0.00 in
05:44 37.7 °F 35.0 °F 29.87 in SW 1.1 mph 1.2 mph 90 % 0.00 in
05:49 37.8 °F 35.1 °F 29.87 in SW 0.9 mph 2.3 mph 90 % 0.00 in
05:54 37.9 °F 35.2 °F 29.87 in SW 0.1 mph 1.2 mph 90 % 0.00 in
05:59 38.0 °F 35.3 °F 29.87 in Calm   1.2 mph 90 % 0.00 in
06:04 38.0 °F 35.3 °F 29.87 in Calm   1.2 mph 90 % 0.00 in
06:09 38.1 °F 35.4 °F 29.87 in SW 0.5 mph 1.2 mph 90 % 0.00 in
06:14 38.1 °F 35.4 °F 29.87 in SW 0.2 mph   90 % 0.00 in
06:19 38.1 °F 35.4 °F 29.86 in Calm     90 % 0.00 in
06:25 38.1 °F 35.4 °F 29.86 in Calm     90 % 0.00 in
06:30 38.0 °F 35.0 °F 29.86 in Calm     89 % 0.00 in
06:35 38.0 °F 35.0 °F 29.86 in Calm     89 % 0.00 in
06:40 37.9 °F 34.9 °F 29.86 in Calm     89 % 0.00 in
06:45 37.8 °F 34.6 °F 29.86 in Calm     88 % 0.00 in
06:50 37.7 °F 34.5 °F 29.86 in Calm     88 % 0.00 in
06:52 37.6 °F 34.4 °F 29.86 in Calm     88 % 0.00 in
06:58 37.5 °F 34.3 °F 29.86 in SW 0.5 mph 2.3 mph 88 % 0.00 in
07:03 37.4 °F 34.2 °F 29.86 in SW 0.4 mph 2.3 mph 88 % 0.00 in
07:08 37.3 °F 34.1 °F 29.86 in SW 0.3 mph 1.2 mph 88 % 0.00 in
07:13 37.2 °F 34.0 °F 29.86 in Calm     88 % 0.00 in
07:18 37.2 °F 34.0 °F 29.85 in SW 0.9 mph 2.3 mph 88 % 0.00 in
07:23 37.1 °F 34.2 °F 29.85 in Calm     89 % 0.00 in
07:28 37.2 °F 34.3 °F 29.86 in SW 1.4 mph 3.5 mph 89 % 0.00 in
07:33 37.3 °F 34.4 °F 29.86 in West 1.7 mph 3.5 mph 89 % 0.00 in
07:38 37.4 °F 34.7 °F 29.85 in WSW 0.4 mph 2.3 mph 90 % 0.00 in
07:43 37.6 °F 34.9 °F 29.85 in SSW 2.1 mph 4.6 mph 90 % 0.00 in
07:48 37.9 °F 35.2 °F 29.85 in SW 1.4 mph 3.0 mph 90 % 0.00 in
07:53 38.3 °F 35.6 °F 29.85 in SW 1.5 mph 4.6 mph 90 % 0.00 in
07:58 38.7 °F 36.0 °F 29.85 in SW 1.9 mph 2.3 mph 90 % 0.00 in
08:03 39.1 °F 36.4 °F 29.85 in SSW 1.8 mph 4.6 mph 90 % 0.00 in
08:08 39.5 °F 36.5 °F 29.85 in SSW 1.4 mph 3.5 mph 89 % 0.00 in
08:13 40.0 °F 36.7 °F 29.85 in SW 4.1 mph 6.9 mph 88 % 0.00 in
08:24 41.0 °F 37.1 °F 29.85 in WSW 5.7 mph 11.5 mph 86 % 0.00 in
08:29 41.5 °F 37.0 °F 29.85 in SW 3.6 mph 5.8 mph 84 % 0.00 in
08:34 41.9 °F 37.1 °F 29.84 in West 3.7 mph 5.8 mph 83 % 0.00 in
08:39 42.4 °F 37.6 °F 29.84 in West 4.7 mph 8.1 mph 83 % 0.00 in
08:44 42.9 °F 37.8 °F 29.84 in SW 2.9 mph 5.8 mph 82 % 0.00 in
08:49 43.3 °F 38.2 °F 29.84 in SW 2.3 mph 3.5 mph 82 % 0.00 in
08:54 43.8 °F 38.7 °F 29.84 in SW 0.7 mph 6.9 mph 82 % 0.00 in
08:59 44.5 °F 39.0 °F 29.84 in West 3.6 mph 7.0 mph 81 % 0.00 in
09:04 45.3 °F 39.8 °F 29.84 in SW 3.0 mph 5.8 mph 81 % 0.00 in
09:09 46.1 °F 40.3 °F 29.83 in SW 4.5 mph 6.0 mph 80 % 0.00 in
09:14 47.1 °F 40.6 °F 29.83 in WSW 4.6 mph 6.9 mph 78 % 0.00 in
09:19 47.9 °F 41.0 °F 29.83 in WSW 6.7 mph 9.2 mph 77 % 0.00 in
09:24 48.7 °F 41.5 °F 29.84 in SW 3.6 mph 8.1 mph 76 % 0.00 in
09:29 49.3 °F 42.1 °F 29.84 in SSW 3.8 mph 6.0 mph 76 % 0.00 in
09:34 50.1 °F 42.1 °F 29.84 in WSW 2.2 mph 3.5 mph 74 % 0.00 in
09:39 50.8 °F 42.1 °F 29.83 in WSW 6.5 mph 10.0 mph 72 % 0.00 in
09:44 51.2 °F 41.4 °F 29.83 in SSW 3.1 mph 6.0 mph 69 % 0.00 in
09:49 51.6 °F 41.4 °F 29.83 in SSW 5.3 mph 11.5 mph 68 % 0.00 in
09:54 52.0 °F 41.4 °F 29.83 in WSW 2.2 mph 6.0 mph 67 % 0.00 in
09:59 52.4 °F 41.4 °F 29.83 in SSW 4.5 mph 8.1 mph 66 % 0.00 in
10:04 52.8 °F 41.0 °F 29.82 in SW 4.9 mph 6.0 mph 64 % 0.00 in
10:10 53.2 °F 40.9 °F 29.82 in SW 2.8 mph 6.0 mph 63 % 0.00 in
10:15 53.4 °F 41.1 °F 29.81 in SW 0.3 mph 3.5 mph 63 % 0.00 in
10:20 53.6 °F 40.9 °F 29.81 in South 2.0 mph 9.2 mph 62 % 0.00 in
10:25 53.7 °F 40.6 °F 29.81 in WSW 2.7 mph 5.8 mph 61 % 0.00 in
10:30 53.9 °F 40.8 °F 29.81 in SSW 3.1 mph 9.0 mph 61 % 0.00 in
10:35 54.1 °F 39.6 °F 29.81 in WSW 3.6 mph 5.8 mph 58 % 0.00 in
10:40 54.3 °F 39.4 °F 29.80 in WSW 4.1 mph 9.0 mph 57 % 0.00 in
10:45 54.5 °F 39.6 °F 29.80 in South 2.9 mph 5.8 mph 57 % 0.00 in
10:50 54.5 °F 39.1 °F 29.80 in SSW 4.7 mph 9.2 mph 56 % 0.00 in
10:55 54.3 °F 38.0 °F 29.80 in SW 6.3 mph 10.4 mph 54 % 0.00 in
11:00 54.2 °F 36.5 °F 29.79 in SSW 6.9 mph 16.1 mph 51 % 0.00 in
11:05 53.9 °F 36.7 °F 29.79 in SSW 5.8 mph 11.5 mph 52 % 0.00 in
11:10 53.7 °F 37.0 °F 29.78 in SSW 8.4 mph 13.0 mph 53 % 0.00 in
11:15 53.6 °F 37.3 °F 29.78 in SSW 3.8 mph 6.9 mph 54 % 0.00 in
11:20 53.6 °F 38.3 °F 29.78 in WSW 4.7 mph 6.9 mph 56 % 0.00 in
11:25 53.7 °F 37.9 °F 29.78 in SW 5.5 mph 6.9 mph 55 % 0.00 in
11:31 53.8 °F 38.0 °F 29.77 in SSW 3.8 mph 9.2 mph 55 % 0.00 in
11:35 53.9 °F 37.6 °F 29.76 in SSW 5.0 mph 6.9 mph 54 % 0.00 in
11:40 54.0 °F 37.7 °F 29.76 in South 3.2 mph 6.9 mph 54 % 0.00 in
11:45 54.1 °F 37.3 °F 29.76 in SSW 4.7 mph 10.4 mph 53 % 0.00 in
11:50 54.1 °F 36.4 °F 29.76 in SSW 5.4 mph 9.2 mph 51 % 0.00 in
11:55 54.2 °F 36.5 °F 29.76 in SW 5.5 mph 8.0 mph 51 % 0.00 in
12:00 54.2 °F 36.5 °F 29.76 in SW 5.6 mph 8.1 mph 51 % 0.00 in
12:06 54.4 °F 36.6 °F 29.75 in SW 7.0 mph 12.0 mph 51 % 0.00 in
12:11 54.4 °F 35.6 °F 29.75 in SSW 3.6 mph 8.1 mph 49 % 0.00 in
12:16 54.6 °F 36.8 °F 29.75 in SSW 6.0 mph 9.0 mph 51 % 0.00 in
12:21 54.7 °F 36.9 °F 29.75 in SW 3.0 mph 6.0 mph 51 % 0.00 in
12:26 54.9 °F 36.6 °F 29.75 in South 3.2 mph 6.9 mph 50 % 0.00 in
12:31 55.1 °F 37.3 °F 29.75 in SSW 5.0 mph 9.0 mph 51 % 0.00 in
12:36 55.2 °F 37.9 °F 29.75 in SW 1.0 mph 3.0 mph 52 % 0.00 in
12:41 55.3 °F 37.5 °F 29.74 in SSW 6.0 mph 12.0 mph 51 % 0.00 in
12:46 55.4 °F 37.6 °F 29.74 in SSW 3.0 mph 9.0 mph 51 % 0.00 in
12:51 55.5 °F 37.1 °F 29.74 in SSW 3.0 mph 8.0 mph 50 % 0.00 in
12:56 55.6 °F 37.7 °F 29.73 in SW 5.0 mph 8.0 mph 51 % 0.00 in
13:01 55.7 °F 37.8 °F 29.73 in SW 4.9 mph 10.4 mph 51 % 0.00 in
13:06 55.8 °F 37.9 °F 29.72 in South 3.1 mph 5.8 mph 51 % 0.00 in
13:11 55.9 °F 38.0 °F 29.72 in SW 1.5 mph 3.5 mph 51 % 0.00 in
13:16 56.0 °F 38.1 °F 29.72 in SE 2.6 mph 8.1 mph 51 % 0.00 in
13:21 56.1 °F 38.7 °F 29.71 in South 0.8 mph 6.9 mph 52 % 0.00 in
13:26 56.3 °F 39.4 °F 29.71 in SSW 2.6 mph 4.6 mph 53 % 0.00 in
13:31 56.4 °F 39.0 °F 29.70 in SSW 1.6 mph 17.3 mph 52 % 0.00 in
13:36 56.6 °F 39.2 °F 29.70 in South 4.0 mph 6.9 mph 52 % 0.00 in
13:41 56.9 °F 39.4 °F 29.71 in SW 5.5 mph 9.2 mph 52 % 0.00 in
13:46 57.2 °F 40.2 °F 29.71 in SSW 4.0 mph 6.0 mph 53 % 0.00 in
13:51 57.5 °F 40.5 °F 29.71 in WSW 2.9 mph 6.9 mph 53 % 0.00 in
13:54 57.5 °F 40.5 °F 29.71 in SSW 3.3 mph 6.0 mph 53 % 0.00 in
13:59 57.6 °F 40.6 °F 29.71 in South 1.9 mph 3.5 mph 53 % 0.00 in
14:04 57.7 °F 40.7 °F 29.71 in SSW 2.5 mph 4.6 mph 53 % 0.00 in
14:07 57.7 °F 41.2 °F 29.71 in SW 3.7 mph 6.0 mph 54 % 0.00 in
14:12 57.6 °F 41.1 °F 29.71 in SW 0.4 mph 2.3 mph 54 % 0.00 in
14:17 57.5 °F 41.0 °F 29.71 in SSW 6.1 mph 10.4 mph 54 % 0.00 in
14:22 57.3 °F 40.8 °F 29.70 in SW 6.6 mph 10.4 mph 54 % 0.00 in
14:27 57.1 °F 41.1 °F 29.70 in WSW 3.1 mph 6.9 mph 55 % 0.00 in
14:32 56.8 °F 41.3 °F 29.70 in WSW 6.1 mph 9.2 mph 56 % 0.00 in
14:38 56.6 °F 41.1 °F 29.70 in SSW 2.0 mph 3.5 mph 56 % 0.00 in
14:43 56.4 °F 41.3 °F 29.70 in SSW 3.1 mph 6.0 mph 57 % 0.00 in
14:48 56.3 °F 41.3 °F 29.70 in SSW 5.8 mph 8.1 mph 57 % 0.00 in
14:53 56.1 °F 41.5 °F 29.70 in WNW 2.4 mph 5.0 mph 58 % 0.00 in
14:58 56.0 °F 41.9 °F 29.70 in SSW 3.4 mph 4.0 mph 59 % 0.00 in
15:03 55.8 °F 41.7 °F 29.70 in SW 3.0 mph 6.9 mph 59 % 0.00 in
15:08 55.7 °F 41.6 °F 29.70 in SW 2.7 mph 5.8 mph 59 % 0.00 in
15:13 55.5 °F 41.4 °F 29.70 in SSW 3.1 mph 4.6 mph 59 % 0.00 in
15:18 55.4 °F 41.7 °F 29.70 in SW 1.0 mph 3.5 mph 60 % 0.00 in
15:23 55.2 °F 41.5 °F 29.70 in WSW 1.2 mph 3.0 mph 60 % 0.00 in
15:28 55.1 °F 41.5 °F 29.70 in WSW 2.6 mph 6.9 mph 60 % 0.00 in
15:33 55.0 °F 41.4 °F 29.70 in SW 4.5 mph 6.9 mph 60 % 0.00 in
15:38 54.8 °F 41.6 °F 29.70 in SSW 3.1 mph 5.0 mph 61 % 0.00 in
15:43 54.6 °F 41.4 °F 29.70 in SSW 1.2 mph 7.0 mph 61 % 0.00 in
15:48 54.5 °F 41.3 °F 29.70 in SSW 0.7 mph 2.3 mph 61 % 0.00 in
15:53 54.3 °F 41.6 °F 29.70 in SSW 1.5 mph 3.5 mph 62 % 0.00 in
15:58 54.2 °F 41.5 °F 29.69 in SSW 0.4 mph 3.5 mph 62 % 0.00 in
16:03 54.0 °F 41.7 °F 29.69 in SSW 0.8 mph 2.0 mph 63 % 0.00 in
16:08 53.8 °F 41.9 °F 29.69 in SSW 0.4 mph 2.3 mph 64 % 0.00 in
16:13 53.5 °F 41.6 °F 29.69 in SSW 0.4 mph 3.5 mph 64 % 0.00 in
16:18 53.3 °F 41.8 °F 29.69 in WSW 0.9 mph 2.3 mph 65 % 0.00 in
16:23 53.1 °F 41.6 °F 29.69 in WSW 0.4 mph 3.5 mph 65 % 0.00 in
16:28 53.0 °F 41.5 °F 29.69 in WSW 0.8 mph 3.5 mph 65 % 0.00 in
16:33 52.8 °F 41.7 °F 29.68 in SW 0.7 mph 3.5 mph 66 % 0.00 in
16:38 52.6 °F 41.9 °F 29.68 in Calm     67 % 0.00 in
16:43 52.3 °F 41.7 °F 29.69 in SSW 1.5 mph 2.3 mph 67 % 0.00 in
16:48 52.2 °F 42.0 °F 29.69 in SSW 0.6 mph 3.5 mph 68 % 0.00 in
16:53 51.9 °F 41.7 °F 29.69 in SSW 0.6 mph 3.5 mph 68 % 0.00 in
16:58 51.8 °F 41.9 °F 29.69 in SSW 0.2 mph 1.2 mph 69 % 0.00 in
17:03 51.6 °F 42.1 °F 29.69 in SSW 0.4 mph 2.3 mph 70 % 0.00 in
17:13 51.2 °F 42.5 °F 29.69 in SSW 1.1 mph 2.3 mph 72 % 0.00 in
17:19 51.0 °F 42.3 °F 29.69 in SSW 1.4 mph 3.5 mph 72 % 0.00 in
17:24 50.9 °F 42.6 °F 29.69 in SSW 0.4 mph 3.5 mph 73 % 0.00 in
17:29 50.8 °F 43.2 °F 29.69 in WSW 0.9 mph 2.3 mph 75 % 0.00 in
17:34 50.8 °F 43.2 °F 29.70 in SW 0.9 mph 3.5 mph 75 % 0.00 in
17:39 50.7 °F 43.4 °F 29.70 in Calm   1.2 mph 76 % 0.00 in
17:44 50.6 °F 43.7 °F 29.70 in SSW 2.2 mph 4.0 mph 77 % 0.00 in
17:49 50.6 °F 43.7 °F 29.70 in SW 1.4 mph 3.5 mph 77 % 0.00 in
17:54 50.7 °F 44.1 °F 29.70 in South 1.4 mph 3.5 mph 78 % 0.00 in
17:59 50.7 °F 44.1 °F 29.70 in SW 2.6 mph 4.6 mph 78 % 0.00 in
18:04 50.7 °F 44.1 °F 29.70 in WSW 2.1 mph 4.0 mph 78 % 0.00 in
18:09 50.7 °F 44.1 °F 29.70 in WSW 0.7 mph 2.3 mph 78 % 0.00 in
18:14 50.7 °F 44.1 °F 29.70 in SSW 2.4 mph 3.5 mph 78 % 0.00 in
18:19 50.8 °F 44.2 °F 29.70 in SSW 3.5 mph 4.6 mph 78 % 0.00 in
18:24 50.8 °F 44.2 °F 29.70 in SSW 1.5 mph 3.0 mph 78 % 0.00 in
18:29 50.8 °F 44.2 °F 29.71 in SW 3.4 mph 4.6 mph 78 % 0.00 in
18:34 50.9 °F 44.3 °F 29.70 in SW 1.3 mph 3.5 mph 78 % 0.00 in
18:44 50.9 °F 44.3 °F 29.70 in SW 1.1 mph 3.5 mph 78 % 0.00 in
18:49 51.0 °F 44.4 °F 29.70 in SW 1.7 mph 3.5 mph 78 % 0.00 in
18:54 51.0 °F 44.4 °F 29.71 in West 1.1 mph 3.5 mph 78 % 0.00 in
18:59 51.1 °F 44.1 °F 29.70 in SW 1.4 mph 3.5 mph 77 % 0.00 in
19:04 51.1 °F 44.1 °F 29.71 in Calm     77 % 0.00 in
19:09 51.2 °F 44.2 °F 29.71 in WSW 0.7 mph 2.3 mph 77 % 0.00 in
19:14 51.2 °F 44.2 °F 29.71 in WSW 0.7 mph 3.5 mph 77 % 0.00 in
19:19 51.2 °F 44.2 °F 29.71 in WSW 1.3 mph 3.5 mph 77 % 0.00 in
19:24 51.2 °F 43.9 °F 29.71 in SW 0.1 mph 2.3 mph 76 % 0.00 in
19:29 51.2 °F 43.9 °F 29.71 in WSW 0.5 mph 2.3 mph 76 % 0.00 in
19:34 51.2 °F 43.9 °F 29.71 in WSW 0.6 mph 3.5 mph 76 % 0.00 in
19:39 51.2 °F 43.9 °F 29.72 in WSW 0.3 mph 1.2 mph 76 % 0.00 in
19:44 51.2 °F 43.9 °F 29.72 in WSW 0.2 mph 1.2 mph 76 % 0.00 in
19:49 51.2 °F 43.9 °F 29.72 in WSW 0.2 mph   76 % 0.00 in
19:54 51.1 °F 43.8 °F 29.72 in WSW 0.8 mph 1.2 mph 76 % 0.00 in
19:59 51.1 °F 43.4 °F 29.72 in SW 2.2 mph 4.0 mph 75 % 0.00 in
20:04 51.0 °F 43.4 °F 29.72 in SW 0.8 mph 3.5 mph 75 % 0.00 in
20:09 50.9 °F 43.3 °F 29.71 in SW 0.8 mph 2.3 mph 75 % 0.00 in
20:14 50.8 °F 43.2 °F 29.71 in SW 2.0 mph 3.5 mph 75 % 0.00 in
20:19 50.7 °F 43.1 °F 29.72 in SSW 2.5 mph 4.0 mph 75 % 0.00 in
20:25 50.6 °F 42.6 °F 29.72 in SW 1.4 mph 2.3 mph 74 % 0.00 in
20:30 50.5 °F 42.5 °F 29.72 in SW 0.8 mph 1.2 mph 74 % 0.00 in
20:35 50.3 °F 42.3 °F 29.72 in SW 0.7 mph 2.3 mph 74 % 0.00 in
20:40 50.1 °F 42.1 °F 29.72 in SW 0.2 mph 1.2 mph 74 % 0.00 in
20:45 50.0 °F 42.0 °F 29.72 in SW 1.5 mph 3.5 mph 74 % 0.00 in
20:50 49.8 °F 41.8 °F 29.72 in SW 1.6 mph 2.3 mph 74 % 0.00 in
20:55 49.7 °F 41.7 °F 29.72 in WSW 1.1 mph 5.0 mph 74 % 0.00 in
21:00 49.6 °F 41.3 °F 29.72 in WSW 1.7 mph 3.0 mph 73 % 0.00 in
21:05 49.5 °F 40.8 °F 29.72 in WSW 1.5 mph 3.5 mph 72 % 0.00 in
21:10 49.5 °F 40.8 °F 29.72 in SW 1.9 mph 3.5 mph 72 % 0.00 in
21:15 49.5 °F 40.8 °F 29.72 in SW 0.4 mph 3.5 mph 72 % 0.00 in
21:20 49.5 °F 40.8 °F 29.72 in SW 1.6 mph 3.5 mph 72 % 0.00 in
21:25 49.5 °F 40.8 °F 29.72 in WSW 0.8 mph 3.5 mph 72 % 0.00 in
21:30 49.4 °F 40.4 °F 29.72 in West 0.3 mph 2.0 mph 71 % 0.00 in
21:35 49.4 °F 40.4 °F 29.72 in SW 2.5 mph 4.6 mph 71 % 0.00 in
21:40 49.4 °F 40.4 °F 29.73 in WSW 1.6 mph 4.0 mph 71 % 0.00 in
21:45 49.5 °F 40.5 °F 29.72 in WSW 0.6 mph 2.3 mph 71 % 0.00 in
21:50 49.5 °F 40.5 °F 29.72 in Calm   4.6 mph 71 % 0.00 in
21:55 49.5 °F 40.5 °F 29.72 in WSW 0.8 mph 4.0 mph 71 % 0.00 in
22:00 49.4 °F 40.4 °F 29.72 in SW 1.2 mph 3.5 mph 71 % 0.00 in
22:05 49.4 °F 40.4 °F 29.72 in SW 0.1 mph 1.2 mph 71 % 0.00 in
22:11 49.4 °F 40.4 °F 29.72 in SSW 0.8 mph 3.5 mph 71 % 0.00 in
22:16 49.4 °F 40.4 °F 29.72 in SW 0.1 mph 2.0 mph 71 % 0.00 in
22:21 49.4 °F 40.4 °F 29.72 in SSW 0.9 mph 2.3 mph 71 % 0.00 in
22:26 49.4 °F 40.0 °F 29.72 in SSW 0.7 mph 2.3 mph 70 % 0.00 in
22:31 49.5 °F 40.1 °F 29.73 in SW 1.1 mph 3.5 mph 70 % 0.00 in
22:36 49.5 °F 39.7 °F 29.73 in WSW 0.7 mph 2.3 mph 69 % 0.00 in
22:41 49.5 °F 39.7 °F 29.73 in Calm   2.3 mph 69 % 0.00 in
22:46 49.5 °F 39.7 °F 29.73 in SSW 0.6 mph 3.5 mph 69 % 0.00 in
22:51 49.5 °F 39.4 °F 29.73 in West 2.3 mph 3.5 mph 68 % 0.00 in
22:56 49.5 °F 39.4 °F 29.73 in WSW 0.4 mph 3.5 mph 68 % 0.00 in
23:01 49.5 °F 39.4 °F 29.73 in WSW 1.5 mph 3.5 mph 68 % 0.00 in
23:06 49.5 °F 39.4 °F 29.73 in West 3.0 mph 4.6 mph 68 % 0.00 in
23:11 49.5 °F 39.0 °F 29.73 in WSW 4.5 mph 10.4 mph 67 % 0.00 in
23:16 49.6 °F 39.1 °F 29.73 in WSW 3.0 mph 8.1 mph 67 % 0.00 in
23:21 49.6 °F 39.5 °F 29.73 in West 3.0 mph 3.5 mph 68 % 0.00 in
23:26 49.8 °F 39.3 °F 29.74 in West 1.0 mph 3.5 mph 67 % 0.00 in
23:31 49.9 °F 39.8 °F 29.74 in West 1.5 mph 3.5 mph 68 % 0.00 in
23:36 50.0 °F 39.8 °F 29.74 in SW 3.5 mph 4.6 mph 68 % 0.00 in
23:41 50.2 °F 40.0 °F 29.74 in WSW 1.0 mph 3.5 mph 68 % 0.00 in
23:46 50.3 °F 40.1 °F 29.74 in WSW 4.3 mph 9.0 mph 68 % 0.00 in
23:51 50.4 °F 40.2 °F 29.74 in West 3.0 mph 5.8 mph 68 % 0.00 in
23:56 50.5 °F 39.9 °F 29.74 in West 2.1 mph 5.8 mph 67 % 0.00 in
Crab Meadow Weather
Compliments of Weather Underground - 3 mb

Script developed by  Jim McMurry - jmcmurry@mwt.net Adapted for the template by  Wim van der Kuil - Leuven-Template.eu

Astronomy: The rings of Saturn are made of ice and rock.